2023/07/29 00:00:00, 0.0,22.0
2023/07/29 00:10:00, 0.0,22.0
2023/07/29 00:20:00, 0.0,21.7
2023/07/29 00:30:00, 0.0,21.6
2023/07/29 00:40:00, 0.0,21.5
2023/07/29 00:50:00, 0.0,21.5
2023/07/29 01:00:00, 0.0,21.6
2023/07/29 01:10:00, 0.0,21.0
2023/07/29 01:20:00, 0.0,21.2
2023/07/29 01:30:00, 0.0,21.2
2023/07/29 01:40:00, 0.0,20.9
2023/07/29 01:50:00, 0.0,21.0
2023/07/29 02:00:00, 0.0,21.3
2023/07/29 02:10:00, 0.0,20.8
2023/07/29 02:20:00, 0.0,21.1
2023/07/29 02:30:00, 0.0,21.4
2023/07/29 02:40:00, 0.0,21.0
2023/07/29 02:50:00, 0.0,20.8
2023/07/29 03:00:00, 0.0,20.6
2023/07/29 03:10:00, 0.0,20.6
2023/07/29 03:20:00, 0.0,20.7
2023/07/29 03:30:00, 0.0,20.8
2023/07/29 03:40:00, 0.0,20.5
2023/07/29 03:50:00, 0.0,20.5
2023/07/29 04:00:00, 0.0,20.4
2023/07/29 04:10:00, 0.0,20.4
2023/07/29 04:20:00, 0.0,20.4
2023/07/29 04:30:00, 0.0,20.3
2023/07/29 04:40:00, 0.0,20.6
2023/07/29 04:50:00, 0.0,20.3
2023/07/29 05:00:00, 0.0,20.2
2023/07/29 05:10:00, 1.0,20.2
2023/07/29 05:20:00,---,20.3
2023/07/29 05:30:00,---,20.1
2023/07/29 05:40:00,---,20.2
2023/07/29 05:50:00,40.2,20.4
2023/07/29 06:00:00,---,20.3
2023/07/29 06:10:00,80.7,20.4
2023/07/29 06:20:00,81.2,20.5
2023/07/29 06:30:00,81.6,20.7
2023/07/29 06:40:00,81.5,20.9
2023/07/29 06:50:00,81.4,21.0
2023/07/29 07:00:00,---,21.4
2023/07/29 07:10:00, 0.0,21.6
2023/07/29 07:20:00, 0.0,22.1
2023/07/29 07:30:00,81.5,22.2
2023/07/29 07:40:00,81.5,25.0
2023/07/29 07:50:00, 0.0,28.3
2023/07/29 08:00:00, 0.0,29.0
2023/07/29 08:10:00, 0.0,28.9
2023/07/29 08:20:00, 0.0,29.9
2023/07/29 08:30:00, 0.0,30.0
2023/07/29 08:40:00, 0.0,30.1
2023/07/29 08:50:00, 0.0,29.6
2023/07/29 09:00:00,33.6,28.4
2023/07/29 09:10:00,88.7,27.6
2023/07/29 09:20:00,82.4,27.6
2023/07/29 09:30:00,82.3,28.3
2023/07/29 09:40:00,82.3,29.0
2023/07/29 09:50:00,82.7,28.8
2023/07/29 10:00:00,82.4,29.6
2023/07/29 10:10:00,82.5,30.0
2023/07/29 10:20:00,82.8,31.0
2023/07/29 10:30:00, 0.0,30.8
2023/07/29 10:40:00, 0.0,31.2
2023/07/29 10:50:00,91.2,31.8
2023/07/29 11:00:00,60.8,32.7
2023/07/29 11:10:00,---,32.2
2023/07/29 11:20:00,---,32.5
2023/07/29 11:30:00,83.1,32.1
2023/07/29 11:40:00,---,32.5
2023/07/29 11:50:00,82.9,32.2
2023/07/29 12:00:00,83.2,33.1
2023/07/29 12:10:00,82.0,31.4
2023/07/29 12:20:00,62.9,32.0
2023/07/29 12:30:00,---,31.8
2023/07/29 12:40:00,82.5,31.2
2023/07/29 12:50:00,82.2,31.4
2023/07/29 13:00:00,67.2,33.5
2023/07/29 13:10:00,82.8,34.5
2023/07/29 13:20:00,82.3,33.3
2023/07/29 13:30:00,81.3,31.3
2023/07/29 13:40:00,81.1,30.7
2023/07/29 13:50:00,---,30.7
2023/07/29 14:00:00,34.7,31.2
2023/07/29 14:10:00,80.3,30.2
2023/07/29 14:20:00,80.3,30.1
2023/07/29 14:30:00,79.8,30.0
2023/07/29 14:40:00,---,31.6
2023/07/29 14:50:00,---,31.6
2023/07/29 15:00:00,80.5,32.4
2023/07/29 15:10:00,81.2,31.5
2023/07/29 15:20:00,82.0,32.2
2023/07/29 15:30:00,82.2,33.6
2023/07/29 15:40:00,80.5,33.7
2023/07/29 15:50:00,80.2,31.9
2023/07/29 16:00:00,80.1,32.4
2023/07/29 16:10:00,80.0,32.0
2023/07/29 16:20:00,80.1,32.4
2023/07/29 16:30:00,79.6,31.8
2023/07/29 16:40:00,80.2,30.4
2023/07/29 16:50:00,81.2,29.7
2023/07/29 17:00:00, 4.2,29.2
2023/07/29 17:10:00, 0.0,28.6
2023/07/29 17:20:00, 0.0,27.6
2023/07/29 17:30:00, 0.0,27.9
2023/07/29 17:40:00, 0.0,27.6
2023/07/29 17:50:00, 0.0,27.0
2023/07/29 18:00:00, 0.0,26.4
2023/07/29 18:10:00, 0.0,25.5
2023/07/29 18:20:00, 0.0,24.9
2023/07/29 18:30:00, 0.0,24.8
2023/07/29 18:40:00, 0.0,24.1
2023/07/29 18:50:00, 0.0,24.0
2023/07/29 19:00:00, 0.0,23.7
2023/07/29 19:10:00, 0.0,23.2
2023/07/29 19:20:00,55.6,23.1
2023/07/29 19:30:00,80.3,23.2
2023/07/29 19:40:00,80.3,22.9
2023/07/29 19:50:00,80.6,22.6
2023/07/29 20:00:00,80.5,22.0
2023/07/29 20:10:00,80.4,21.8
2023/07/29 20:20:00,80.5,21.6
2023/07/29 20:30:00,80.7,21.5
2023/07/29 20:40:00,80.8,21.1
2023/07/29 20:50:00,80.8,20.7
2023/07/29 21:00:00,80.8,20.4
2023/07/29 21:10:00,80.8,20.4
2023/07/29 21:20:00,80.8,20.4
2023/07/29 21:30:00,31.7,20.3
2023/07/29 21:40:00,76.4,20.2
2023/07/29 21:50:00,77.2,19.9
2023/07/29 22:00:00,75.9,19.7
2023/07/29 22:10:00,75.8,19.6
2023/07/29 22:20:00,75.9,19.3
2023/07/29 22:30:00,73.9,19.5
2023/07/29 22:40:00,75.4,19.2
2023/07/29 22:50:00,75.7,19.4
2023/07/29 23:00:00,74.6,19.2
2023/07/29 23:10:00,76.2,19.2
2023/07/29 23:20:00,76.2,19.2
2023/07/29 23:30:00,77.8,19.1
2023/07/29 23:40:00,78.5,19.1
2023/07/29 23:50:00,78.6,19.1
